DW7816 Weather Reports


Display with metric or nautical units.
time (UTC)temp
F
wind
direction
speed
MPH
gust
MPH
rain 1hr
in
rain 24hr
in
rain mn
in
humidity
%
barometer
mb
20260503223605 78 301 2.0 10.0 0.00 0.00 0.00 41 1012.5
20260503222628 78 131 2.0 10.0 0.00 0.00 0.00 42 1012.7
20260503221650 78 306 2.0 10.0 0.00 0.00 0.00 42 1012.8
20260503220648 79 267 3.0 14.0 0.00 0.00 0.00 44 1013.0
20260503215623 79 321 3.0 11.0 0.00 0.00 0.00 41 1013.0
20260503214634 78 277 3.0 14.0 0.00 0.00 0.00 43 1013.2
20260503213619 78 304 4.0 14.0 0.00 0.00 0.00 39 1013.3
20260503211428 79 312 2.0 15.0 0.00 0.00 0.00 47 1013.6
20260503205250 78 304 5.0 14.0 0.00 0.00 0.00 43 1014.0
20260503201911 78 298 4.0 12.0 0.00 0.00 0.00 40 1014.3
20260503200912 78 298 3.0 9.0 0.00 0.00 0.00 44 1014.7
20260503195929 77 344 3.0 9.0 0.00 0.00 0.00 45 1014.7
20260503193802 76 305 3.0 12.0 0.00 0.00 0.00 50 1015.4
20260503192814 76 248 3.0 12.0 0.00 0.00 0.00 51 1015.6
20260503191816 76 286 3.0 14.0 0.00 0.00 0.00 49 1015.7
20260503190837 76 311 3.0 14.0 0.00 0.00 0.00 46 1015.9
20260503185853 75 5 4.0 11.0 0.00 0.00 0.00 53 1016.0
20260503184844 74 294 3.0 9.0 0.00 0.00 0.00 50 1016.2
20260503183820 74 306 4.0 13.0 0.00 0.00 0.00 48 1016.4
20260503181622 73 346 2.0 11.0 0.00 0.00 0.00 55 1016.8
20260503180548 73 309 4.0 11.0 0.00 0.00 0.00 51 1017.1
20260503173247 71 253 4.0 16.0 0.00 0.00 0.00 53 1017.8
20260503172250 71 287 4.0 16.0 0.00 0.00 0.00 58 1018.0
20260503171236 70 297 2.0 10.0 0.00 0.00 0.00 56 1018.2
20260503170256 70 175 2.0 8.0 0.00 0.00 0.00 56 1018.3
20260503150958 62 321 2.0 7.0 0.00 0.00 0.00 60 1019.5
20260503130841 47 202 0.0 3.0 0.00 0.00 0.00 92 1020.1
20260503110420 36 36 0.0 0.0 0.00 0.00 0.00 97 1020.0
20260503100208 36 36 0.0 0.0 0.00 0.00 0.00 96 1019.9
20260503080948 37 36 0.0 0.0 0.00 0.00 0.00 96 1020.5
20260503072934 37 36 0.0 0.0 0.00 0.00 0.00 96 1020.7
20260503071939 37 36 0.0 0.0 0.00 0.00 0.00 96 1020.8
20260503054651 39 36 0.0 0.0 0.00 0.00 0.00 94 1021.4
20260503053655 39 36 0.0 0.0 0.00 0.00 0.00 94 1021.4
20260503052621 39 36 0.0 0.0 0.00 0.00 0.00 94 1021.3
20260503050420 40 36 0.0 0.0 0.00 0.00 0.00 93 1021.2
20260503045418 40 36 0.0 0.0 0.00 0.00 0.00 93 1021.2
20260503044412 40 36 0.0 0.0 0.00 0.00 0.00 93 1021.1
20260503041127 41 36 0.0 0.0 0.00 0.00 0.00 92 1021.0
20260503040149 42 36 0.0 0.0 0.00 0.00 0.00 91 1021.0
20260503035155 42 36 0.0 0.0 0.00 0.00 0.00 91 1021.0
20260503034122 42 36 0.0 0.0 0.00 0.00 0.00 91 1021.0
20260503033144 43 36 0.0 0.0 0.00 0.00 0.00 90 1021.1
20260503032146 43 36 0.0 0.0 0.00 0.00 0.00 90 1021.1
20260503031142 43 36 0.0 0.0 0.00 0.00 0.00 89 1021.0
20260503030135 44 36 0.0 0.0 0.00 0.00 0.00 88 1020.9
20260503025144 44 36 0.0 0.0 0.00 0.00 0.00 87 1020.8
20260503024111 45 36 0.0 0.0 0.00 0.00 0.00 87 1020.8
20260503023134 45 36 0.0 0.0 0.00 0.00 0.00 85 1020.8
20260503022104 46 36 0.0 0.0 0.00 0.00 0.00 84 1020.6
20260503021117 47 36 0.0 0.0 0.00 0.00 0.00 82 1020.5
20260503020120 48 36 0.0 0.0 0.00 0.00 0.00 80 1020.4
20260503015109 49 36 0.0 0.0 0.00 0.00 0.00 79 1020.4
20260503014035 50 36 0.0 0.0 0.00 0.00 0.00 77 1020.4
20260503013056 51 36 0.0 0.0 0.00 0.00 0.00 74 1020.3
20260503012114 52 36 0.0 0.0 0.00 0.00 0.00 71 1020.2
20260503011051 53 36 0.0 0.0 0.00 0.00 0.00 69 1020.1
20260503003824 57 36 0.0 1.0 0.00 0.00 0.00 62 1019.9
20260503002819 58 49 1.0 4.0 0.00 0.00 0.00 57 1019.8
20260503001757 58 31 0.0 4.0 0.00 0.00 0.00 56 1019.7
20260503000731 59 48 1.0 5.0 0.00 0.00 0.00 55 1019.8
20260502235715 59 43 0.0 4.0 0.00 0.00 0.00 53 1019.7
20260502234649 60 131 3.0 8.0 0.00 0.00 0.00 51 1019.8
20260502233639 61 52 3.0 7.0 0.00 0.00 0.00 51 1019.7
20260502232645 62 39 1.0 8.0 0.00 0.00 0.00 48 1019.8
20260502231630 62 39 2.0 8.0 0.00 0.00 0.00 50 1019.9
20260502230621 63 68 2.0 6.0 0.00 0.00 0.00 49 1019.9
20260502225611 62 46 3.0 6.0 0.00 0.00 0.00 47 1019.9
20260502224620 62 9 3.0 8.0 0.00 0.00 0.00 48 1019.9